Location: Villingen
(48.0639°N, 8.4609°E)
Time: 14:13:03
(UTC+01:00)

Amateur Radio Satellites - All Passes

Search period start: 23 November 2017 13:43
Search period end: 24 November 2017 13:43
Location: Villingen, 48.0639°N, 8.4609°E

Satellite Date Start Highest point End Downlink Frequencies (MHz)
Time Altitude Azimuth
Gurwin Techsat 1B 23 Nov 13:45:56 13:51:08 54° 260° (W) 13:56:22 435.225
AO-91 23 Nov 13:49:16 13:54:20 40° 264° (W) 13:59:23 145.960
M-CUBED/EXP-1 PRIME 23 Nov 13:49:16 13:52:56 72° 67° (ENE) 13:56:56 437.505
NO-84 23 Nov 13:49:40 13:50:34 11° 124° (SE) 13:51:30 435.350 FM
AO-85 23 Nov 13:54:26 13:57:49 20° 247° (WSW) 14:01:21 145.980
50 SAT 23 Nov 14:07:06 14:10:20 66° 102° (ESE) 14:13:31 437.505
UKube-1 23 Nov 14:18:09 14:22:20 45° 100° (E) 14:26:28 .
BEESAT 23 Nov 14:31:03 14:31:58 10° 86° (E) 14:32:53 436.000
MOZHAYETS 4 23 Nov 14:31:47 14:34:19 15° 89° (E) 14:36:51
O/OREOS (USA 219) 23 Nov 14:35:31 14:39:42 34° 305° (NW) 14:43:55 437.305
VELOX 1 23 Nov 14:39:30 14:42:52 21° 298° (WNW) 14:46:11 145.980
ITUPSAT 1 23 Nov 14:41:06 14:43:24 13° 88° (E) 14:45:41 437.325
DOVE 4 23 Nov 14:45:36 14:47:52 13° 53° (NE) 14:50:08 437.250
Oscar 19 23 Nov 14:45:48 14:48:06 13° 273° (W) 14:50:23 437.125/150
ITAMSAT 1 23 Nov 15:00:09 15:05:21 73° 73° (ENE) 15:10:36 435.822/435.867
YUBILEINY 23 Nov 15:03:03 15:10:10 26° 59° (ENE) 15:17:13 435.215
AO-7 23 Nov 15:15:52 15:24:06 66° 255° (WSW) 15:32:24 .
DX 1 23 Nov 15:17:13 15:21:06 32° 294° (WNW) 15:24:58 434.975-435.025
NO-84 23 Nov 15:23:26 15:27:06 65° 143° (SE) 15:31:05 435.350 FM
M-CUBED/EXP-1 PRIME 23 Nov 15:26:55 15:27:56 11° 268° (W) 15:28:58 437.505
UKube-1 23 Nov 15:54:44 15:58:04 22° 298° (WNW) 16:01:23 .
BEESAT 23 Nov 16:05:43 16:10:30 81° 105° (ESE) 16:15:15 436.000
MOZHAYETS 4 23 Nov 16:07:25 16:11:59 71° 286° (WNW) 16:16:31
ITUPSAT 1 23 Nov 16:17:03 16:21:50 82° 286° (WNW) 16:26:35 437.325
DOVE 4 23 Nov 16:19:27 16:24:33 69° 73° (ENE) 16:29:49 437.250
XW-2B 23 Nov 16:21:07 16:22:58 13° 61° (ENE) 16:24:49 145.730 - 145.750
CUBESAT XI-V 23 Nov 16:25:05 16:29:37 46° 99° (E) 16:34:08 437.345
NUDT-PHONESAT 23 Nov 16:26:47 16:27:33 11° 59° (ENE) 16:28:19 437.300
RS-15 23 Nov 16:31:00 16:36:58 15° 93° (E) 16:42:54 29.354- 29.394
ITAMSAT 1 23 Nov 16:41:58 16:45:23 17° 271° (W) 16:48:48 435.822/435.867
HO-68 23 Nov 16:43:37 16:48:59 23° 51° (NE) 16:54:21 435.675
XW-2C 23 Nov 16:45:30 16:48:30 23° 66° (ENE) 16:51:31 145.795 - 145.815
CUTE-I 23 Nov 16:49:36 16:54:18 32° 63° (ENE) 16:59:02 437.470
LilacSat-2 23 Nov 16:50:13 16:53:28 28° 68° (ENE) 16:56:44 437.200
XW-2F 23 Nov 16:53:45 16:56:53 26° 67° (ENE) 17:00:04 145.980 - 146.000
YUBILEINY 23 Nov 16:59:16 17:08:11 86° 263° (W) 17:17:01 435.215
NO-84 23 Nov 17:00:59 17:04:40 39° 344° (NNW) 17:08:34 435.350 FM
AO-7 23 Nov 17:14:30 17:18:30 14° 276° (W) 17:22:32 .
KAITUO 1B 23 Nov 17:17:06 17:20:30 37° 70° (ENE) 17:23:57 145.475/437.950
CUBEBUG 2 23 Nov 17:28:46 17:31:10 14° 60° (ENE) 17:33:33 437.445
XW-2D 23 Nov 17:37:59 17:41:43 88° 257° (WSW) 17:45:29 145.860 - 145.880
KKS-1 23 Nov 17:41:53 17:46:20 61° 102° (ESE) 17:50:44 437.445
CUTE 1.7 + AOD 2 23 Nov 17:42:04 17:45:35 27° 66° (ENE) 17:49:08 437.475
BEESAT 23 Nov 17:44:51 17:47:39 16° 303° (WNW) 17:50:27 436.000
MOZHAYETS 4 23 Nov 17:47:16 17:48:18 11° 305° (NW) 17:49:19
XW-2B 23 Nov 17:52:58 17:56:40 61° 259° (W) 18:00:24 145.730 - 145.750
ITUPSAT 1 23 Nov 17:56:44 17:58:54 13° 305° (NW) 18:01:04 437.325
NUDT-PHONESAT 23 Nov 17:57:10 18:00:49 78° 257° (WSW) 18:04:30 437.300
DOVE 4 23 Nov 17:59:10 18:02:44 19° 272° (W) 18:06:23 437.250
STARS 23 Nov 17:59:18 18:03:26 38° 98° (E) 18:07:31 437.465
CUBESAT XI-V 23 Nov 18:02:58 18:06:44 24° 297° (WNW) 18:10:30 437.345
ZACube-1 23 Nov 18:06:58 18:07:43 10° 57° (ENE) 18:08:29 437.345
SEEDS 23 Nov 18:07:33 18:11:13 30° 67° (ENE) 18:14:53 437.485
AAUSAT CUBESAT 2 23 Nov 18:08:15 18:10:41 15° 60° (ENE) 18:13:08 437.432
UWE-3 23 Nov 18:19:06 18:22:37 24° 65° (ENE) 18:26:04 435.000/436.395/437.385
XW-2C 23 Nov 18:19:15 18:22:34 30° 264° (W) 18:25:55 145.795 - 145.815
LilacSat-2 23 Nov 18:24:35 18:27:43 25° 266° (W) 18:30:54 437.200
XW-2F 23 Nov 18:27:48 18:30:58 26° 265° (W) 18:34:10 145.980 - 146.000
HO-68 23 Nov 18:28:38 18:35:51 89° 65° (ENE) 18:43:07 435.675
CUTE-I 23 Nov 18:29:09 18:34:13 43° 262° (W) 18:39:21 437.470
RS-15 23 Nov 18:34:45 18:46:41 60° 116° (ESE) 18:58:32 29.354- 29.394
NO-84 23 Nov 18:39:06 18:42:45 31° 5° (N) 18:46:33 435.350 FM
XW-2A 23 Nov 18:41:29 18:44:23 29° 69° (ENE) 18:47:19 145.665 - 145.685
KAITUO 1B 23 Nov 18:52:01 18:54:38 18° 268° (W) 18:57:16 145.475/437.950
AO-73 23 Nov 18:53:17 18:56:46 25° 66° (ENE) 19:00:12 145.935
YUBILEINY 23 Nov 18:57:40 19:03:40 21° 285° (WNW) 19:09:39 435.215
CUBEBUG 2 23 Nov 19:02:42 19:07:15 79° 259° (WSW) 19:11:40 437.445
Oscar 11 23 Nov 19:06:52 19:10:20 24° 65° (ENE) 19:13:49 .
FO-29 23 Nov 19:17:01 19:21:11 15° 80° (E) 19:25:13 435.910
CUTE 1.7 + AOD 2 23 Nov 19:17:29 19:21:19 33° 264° (W) 19:25:10 437.475
KKS-1 23 Nov 19:19:25 19:22:27 18° 300° (WNW) 19:25:27 437.445
STARS 23 Nov 19:35:58 19:39:36 26° 296° (WNW) 19:43:11 437.465
ZACube-1 23 Nov 19:39:00 19:43:18 80° 74° (ENE) 19:47:31 437.345
AAUSAT CUBESAT 2 23 Nov 19:41:33 19:45:39 64° 260° (W) 19:49:48 437.432
SEEDS 23 Nov 19:43:14 19:46:52 29° 265° (W) 19:50:33 437.485
DELFI C3 23 Nov 19:50:25 19:52:44 15° 61° (ENE) 19:55:05 145.870
UWE-3 23 Nov 19:54:44 19:58:53 40° 262° (W) 20:02:58 435.000/436.395/437.385
STRAND 1 23 Nov 19:56:45 20:01:52 65° 102° (ESE) 20:06:56 437.568
nSIGHT-1 23 Nov 20:08:04 20:10:36 21° 140° (SE) 20:13:07 .
XW-2A 23 Nov 20:14:44 20:17:09 19° 267° (W) 20:19:35 145.665 - 145.685
NO-84 23 Nov 20:16:34 20:20:41 58° 25° (NNE) 20:24:55 435.350 FM
EO-88 23 Nov 20:17:04 20:18:49 13° 61° (ENE) 20:20:34 145.990 - 145.960
HO-68 23 Nov 20:19:30 20:24:30 20° 272° (W) 20:29:34 435.675
Max Valier Satellite 23 Nov 20:23:34 20:26:20 21° 65° (ENE) 20:29:06 145.860
AO-73 23 Nov 20:28:56 20:32:52 36° 263° (W) 20:36:45 145.935
Oscar 11 23 Nov 20:42:17 20:46:17 38° 263° (W) 20:50:20 .
RS-15 23 Nov 20:47:21 20:59:30 58° 322° (NW) 21:11:27 29.354- 29.394
ISS 23 Nov 20:59:40 21:02:49 44° 148° (SSE) 21:05:58 437.550
FO-29 23 Nov 20:59:48 21:07:41 68° 101° (E) 21:15:04 435.910
SO-50 23 Nov 21:14:54 21:18:54 33° 118° (ESE) 21:22:56 436.795
ZACube-1 23 Nov 21:18:42 21:20:06 11° 273° (W) 21:21:30 437.345
DELFI C3 23 Nov 21:23:06 21:27:01 60° 259° (WSW) 21:31:00 145.870
O/OREOS (USA 219) 23 Nov 21:23:38 21:26:54 19° 47° (NE) 21:30:08 437.305
UNISAT 6 23 Nov 21:33:55 21:37:26 24° 94° (E) 21:40:55 437.425
STRAND 1 23 Nov 21:36:50 21:40:36 21° 301° (WNW) 21:44:19 437.568
TIGRISAT 23 Nov 21:37:32 21:41:02 24° 94° (E) 21:44:29 435.000
nSIGHT-1 23 Nov 21:43:19 21:46:32 81° 336° (NNW) 21:49:46 .
PRISM 23 Nov 21:46:44 21:48:03 11° 88° (E) 21:49:21 437.425
EO-88 23 Nov 21:48:27 21:52:00 58° 259° (W) 21:55:37 145.990 - 145.960
NO-84 23 Nov 21:54:05 21:57:58 35° 224° (SW) 22:01:52 435.350 FM
Max Valier Satellite 23 Nov 21:56:39 21:59:58 33° 263° (W) 22:03:19 145.860
LO-87 23 Nov 22:04:44 22:07:52 29° 69° (ENE) 22:11:01 145.935 - 145.965
ESTCUBE 1 23 Nov 22:18:03 22:22:08 36° 67° (ENE) 22:26:14 437.505/2401.250
VELOX 1 23 Nov 22:30:55 22:31:21 10° 54° (NE) 22:31:46 145.980
ISS 23 Nov 22:36:04 22:39:18 53° 348° (NNW) 22:42:30 437.550
FO-29 23 Nov 22:45:21 22:52:09 34° 302° (WNW) 22:58:41 435.910
SO-50 23 Nov 22:55:03 22:59:17 40° 318° (NW) 23:03:35 436.795
O/OREOS (USA 219) 23 Nov 23:02:16 23:06:49 70° 247° (WSW) 23:11:18 437.305
SPROUT 23 Nov 23:03:52 23:07:29 27° 65° (ENE) 23:11:05 437.525
RS-15 23 Nov 23:04:08 23:15:10 36° 354° (N) 23:25:51 29.354- 29.394
QB50P2 23 Nov 23:06:23 23:07:26 11° 87° (E) 23:08:29 145.880/145.840
UNISAT 6 23 Nov 23:10:18 23:14:15 36° 292° (WNW) 23:18:09 437.425
TIGRISAT 23 Nov 23:13:54 23:17:50 36° 292° (WNW) 23:21:44 435.000
PRISM 23 Nov 23:19:40 23:23:52 79° 286° (WNW) 23:28:00 437.425
nSIGHT-1 23 Nov 23:19:56 23:23:01 41° 358° (N) 23:26:05 .
LO-87 23 Nov 23:38:23 23:41:17 22° 266° (W) 23:44:11 145.935 - 145.965
PCSat 23 Nov 23:42:10 23:47:05 37° 113° (ESE) 23:52:02 145.827
DUCHIFAT 1 23 Nov 23:49:46 23:53:00 21° 93° (E) 23:56:13 145.980
ESTCUBE 1 23 Nov 23:55:09 23:58:59 28° 266° (W) 00:02:52 437.505/2401.250
AIST 2D 23 Nov 23:56:50 00:00:22 78° 284° (WNW) 00:03:54 435.315
EO-79 24 Nov 00:00:07 00:03:59 34° 97° (E) 00:07:49 145.935-145.965
NANOSAT C BR1 24 Nov 00:01:33 00:05:20 32° 96° (E) 00:09:05 145.865
VELOX 1 24 Nov 00:02:32 00:06:56 69° 72° (ENE) 00:11:23 145.980
ISS 24 Nov 00:12:56 00:16:07 45° 7° (N) 00:19:17 437.550
POLYITAN 1 24 Nov 00:16:04 00:20:10 50° 100° (E) 00:24:15 437.675
BUGSAT 1 24 Nov 00:32:03 00:34:27 15° 90° (E) 00:36:48 437.445
50 SAT 24 Nov 00:37:06 00:40:04 34° 70° (ENE) 00:43:03 437.505
SO-50 24 Nov 00:38:41 00:40:57 13° 341° (NNW) 00:43:14 436.795
SPROUT 24 Nov 00:39:20 00:43:15 34° 264° (W) 00:47:11 437.525
DX 1 24 Nov 00:39:33 00:43:39 41° 68° (ENE) 00:47:48 434.975-435.025
QB50P2 24 Nov 00:39:35 00:43:49 82° 285° (WNW) 00:48:00 145.880/145.840
nSIGHT-1 24 Nov 00:56:20 00:59:32 67° 18° (NNE) 01:02:43 .
PRISM 24 Nov 00:57:38 00:58:23 10° 304° (NW) 00:59:08 437.425
Oscar 19 24 Nov 01:11:16 01:15:29 25° 93° (E) 01:19:40 437.125/150
UKube-1 24 Nov 01:15:30 01:19:46 61° 72° (ENE) 01:24:03 .
RS-15 24 Nov 01:19:51 01:31:24 46° 28° (NNE) 01:42:21 29.354- 29.394
DUCHIFAT 1 24 Nov 01:24:54 01:28:49 40° 291° (WNW) 01:32:42 145.980
PCSat 24 Nov 01:25:15 01:30:25 44° 313° (NW) 01:35:38 145.827
EO-79 24 Nov 01:36:08 01:39:37 26° 295° (WNW) 01:43:04 145.935-145.965
AO-91 24 Nov 01:36:23 01:40:39 37° 95° (E) 01:44:29 145.960
MOZHAYETS 4 24 Nov 01:36:40 01:40:09 22° 62° (ENE) 01:43:39
NANOSAT C BR1 24 Nov 01:37:23 01:40:57 27° 294° (WNW) 01:44:29 145.865
BEESAT 24 Nov 01:39:17 01:42:47 21° 60° (ENE) 01:46:17 436.000
VELOX 1 24 Nov 01:41:23 01:43:51 15° 271° (W) 01:46:20 145.980
ISS 24 Nov 01:49:28 01:52:44 70° 206° (SSW) 01:55:58 437.550
ITUPSAT 1 24 Nov 01:50:28 01:54:19 25° 62° (ENE) 01:58:11 437.325
POLYITAN 1 24 Nov 01:52:40 01:55:37 19° 298° (WNW) 01:58:33 437.675
BEESAT 3 24 Nov 01:57:39 02:00:59 26° 116° (ESE) 02:04:20 437.485
Gurwin Techsat 1B 24 Nov 01:58:20 02:03:28 45° 99° (E) 02:08:33 435.225
CUBESAT XI-V 24 Nov 01:59:04 01:59:35 10° 54° (NE) 02:00:05 437.345
BUGSAT 1 24 Nov 02:06:11 02:10:09 54° 288° (WNW) 02:14:03 437.445
50 SAT 24 Nov 02:10:19 02:12:17 15° 268° (W) 02:14:15 437.505
DX 1 24 Nov 02:16:30 02:19:59 23° 266° (W) 02:23:30 434.975-435.025
QB50P2 24 Nov 02:17:49 02:18:52 11° 304° (WNW) 02:19:56 145.880/145.840
SO-50 24 Nov 02:22:53 02:23:27 10° 6° (N) 02:24:01 436.795
nSIGHT-1 24 Nov 02:32:47 02:35:35 28° 217° (SW) 02:38:22 .
Oscar 19 24 Nov 02:50:04 02:55:04 51° 291° (WNW) 03:00:03 437.125/150
UKube-1 24 Nov 02:53:34 02:56:11 16° 270° (W) 02:58:48 .
M-CUBED/EXP-1 PRIME 24 Nov 02:57:43 03:01:53 33° 102° (ESE) 03:06:04 437.505
KKS-1 24 Nov 03:09:33 03:11:32 13° 56° (NE) 03:13:31 437.445
ITAMSAT 1 24 Nov 03:10:17 03:13:59 19° 91° (E) 03:17:39 435.822/435.867
PCSat 24 Nov 03:12:18 03:15:17 15° 337° (NNW) 03:18:16 145.827
MOZHAYETS 4 24 Nov 03:12:35 03:17:00 49° 260° (W) 03:21:27
AO-91 24 Nov 03:13:05 03:16:56 26° 297° (WNW) 03:20:27 145.960
AO-7 24 Nov 03:13:30 03:20:59 35° 96° (E) 03:28:27 .
BEESAT 2 24 Nov 03:15:23 03:19:14 46° 121° (ESE) 03:23:09 435.950
BEESAT 24 Nov 03:15:26 03:20:09 59° 259° (WSW) 03:24:53 436.000
ISS 24 Nov 03:27:00 03:28:43 14° 224° (SW) 03:30:25 437.550
ITUPSAT 1 24 Nov 03:27:18 03:31:54 47° 260° (W) 03:36:31 437.325
CUBESAT XI-V 24 Nov 03:31:29 03:36:02 66° 73° (ENE) 03:40:38 437.345
RS-15 24 Nov 03:33:08 03:45:06 82° 237° (WSW) 03:56:23 29.354- 29.394
BEESAT 3 24 Nov 03:34:33 03:38:21 41° 315° (NW) 03:42:11 437.485
Gurwin Techsat 1B 24 Nov 03:38:39 03:43:13 30° 297° (WNW) 03:47:47 435.225
SO-50 24 Nov 04:02:14 04:05:42 20° 30° (NNE) 04:09:10 436.795
YUBILEINY 24 Nov 04:10:31 04:17:00 24° 77° (ENE) 04:23:31 435.215
AO-85 24 Nov 04:11:10 04:15:01 61° 124° (ESE) 04:19:05 145.980
DOVE 4 24 Nov 04:16:11 04:19:23 16° 87° (E) 04:22:28 437.250
M-CUBED/EXP-1 PRIME 24 Nov 04:32:05 04:36:13 35° 298° (WNW) 04:40:24 437.505
KKS-1 24 Nov 04:42:54 04:47:24 87° 75° (ENE) 04:51:55 437.445
ITAMSAT 1 24 Nov 04:48:44 04:53:55 66° 289° (WNW) 04:59:03 435.822/435.867
BEESAT 2 24 Nov 04:53:40 04:57:08 27° 321° (NW) 05:00:40 435.950
STARS 24 Nov 04:58:47 05:03:06 54° 71° (ENE) 05:07:26 437.465
AO-7 24 Nov 05:06:00 05:14:13 64° 297° (WNW) 05:22:25 .
CUBESAT XI-V 24 Nov 05:11:06 05:13:52 16° 271° (W) 05:16:42 437.345
BEESAT 3 24 Nov 05:15:30 05:16:55 12° 337° (NNW) 05:18:21 437.485
XW-2B 24 Nov 05:23:45 05:24:52 11° 88° (E) 05:25:58 145.730 - 145.750
FO-29 24 Nov 05:35:20 05:38:15 13° 41° (NE) 05:41:15 435.910
STRAND 1 24 Nov 05:38:41 05:42:32 22° 59° (ENE) 05:46:22 437.568
SO-50 24 Nov 05:42:10 05:46:49 83° 51° (NE) 05:51:32 436.795
RS-15 24 Nov 05:47:07 05:55:36 24° 261° (W) 06:03:48 29.354- 29.394
XW-2C 24 Nov 05:48:00 05:50:57 21° 93° (E) 05:53:54 145.795 - 145.815
DOVE 4 24 Nov 05:52:27 05:57:41 75° 286° (WNW) 06:02:36 437.250
AO-85 24 Nov 05:52:36 05:55:48 22° 326° (NW) 05:59:09 145.980
LilacSat-2 24 Nov 05:53:34 05:56:49 26° 95° (E) 06:00:05 437.200
HO-68 24 Nov 05:54:44 05:58:10 14° 84° (E) 06:01:34 435.675
XW-2F 24 Nov 05:55:44 05:58:50 23° 94° (E) 06:01:56 145.980 - 146.000
YUBILEINY 24 Nov 06:03:55 06:12:42 85° 280° (W) 06:21:36 435.215
KAITUO 1B 24 Nov 06:18:05 06:21:31 32° 97° (E) 06:24:56 145.475/437.950
KKS-1 24 Nov 06:23:06 06:24:35 11° 273° (W) 06:26:04 437.445
ITAMSAT 1 24 Nov 06:30:28 06:32:25 12° 309° (NW) 06:34:21 435.822/435.867
STARS 24 Nov 06:36:41 06:39:45 18° 268° (W) 06:42:50 437.465
XW-2D 24 Nov 06:40:41 06:44:31 84° 103° (ESE) 06:48:21 145.860 - 145.880
CUTE-I 24 Nov 06:42:03 06:47:23 59° 101° (E) 06:52:39 437.470
PCSat 24 Nov 06:43:11 06:46:57 19° 30° (NNE) 06:50:43 145.827
CUBEBUG 2 24 Nov 06:50:58 06:53:32 16° 90° (E) 06:56:05 437.445
XW-2B 24 Nov 06:55:40 06:59:29 69° 285° (WNW) 07:03:16 145.730 - 145.750
NUDT-PHONESAT 24 Nov 06:57:09 07:00:53 88° 103° (ESE) 07:04:37 437.300
CUTE 1.7 + AOD 2 24 Nov 06:58:15 07:02:06 32° 95° (E) 07:05:57 437.475
AO-7 24 Nov 07:00:01 07:05:28 20° 319° (NW) 07:10:56 .
FO-29 24 Nov 07:14:46 07:21:20 46° 63° (ENE) 07:28:32 435.910
STRAND 1 24 Nov 07:16:09 07:21:16 64° 258° (WSW) 07:26:25 437.568
AAUSAT CUBESAT 2 24 Nov 07:20:52 07:23:30 16° 90° (E) 07:26:07 437.432
XW-2C 24 Nov 07:21:44 07:25:14 34° 290° (WNW) 07:28:42 145.795 - 145.815
SEEDS 24 Nov 07:22:38 07:26:34 35° 96° (E) 07:30:28 437.485
SO-50 24 Nov 07:23:59 07:26:42 15° 249° (WSW) 07:29:25 436.795
ZACube-1 24 Nov 07:25:37 07:26:55 11° 87° (E) 07:28:15 437.345
LilacSat-2 24 Nov 07:27:44 07:31:04 29° 292° (WNW) 07:34:25 437.200
XW-2F 24 Nov 07:29:36 07:32:58 31° 292° (WNW) 07:36:20 145.980 - 146.000
DOVE 4 24 Nov 07:32:00 07:34:23 13° 306° (NW) 07:36:45 437.250
XW-2A 24 Nov 07:32:01 07:34:29 19° 93° (E) 07:36:57 145.665 - 145.685
HO-68 24 Nov 07:40:00 07:47:13 70° 104° (ESE) 07:54:21 435.675
UWE-3 24 Nov 07:40:29 07:44:08 29° 95° (E) 07:47:46 435.000/436.395/437.385
KAITUO 1B 24 Nov 07:52:21 07:55:20 23° 294° (WNW) 07:58:20 145.475/437.950
YUBILEINY 24 Nov 08:04:24 08:10:59 23° 303° (WNW) 08:17:38 435.215
AO-73 24 Nov 08:12:46 08:16:28 30° 96° (E) 08:20:10 145.935
XW-2D 24 Nov 08:17:13 08:18:05 11° 301° (WNW) 08:18:57 145.860 - 145.880
CUTE-I 24 Nov 08:22:47 08:27:03 24° 300° (WNW) 08:31:17 437.470
Oscar 11 24 Nov 08:25:38 08:29:27 29° 95° (E) 08:33:15 .
PCSat 24 Nov 08:25:59 08:31:25 66° 52° (NE) 08:36:47 145.827
CUBEBUG 2 24 Nov 08:26:27 08:30:32 53° 288° (WNW) 08:34:33 437.445
BEESAT 3 24 Nov 08:33:54 08:35:43 13° 25° (NNE) 08:37:31 437.485
CUTE 1.7 + AOD 2 24 Nov 08:34:11 08:37:52 29° 293° (WNW) 08:41:34 437.475
UNISAT 6 24 Nov 08:35:38 08:39:43 34° 68° (ENE) 08:43:44 437.425
PRISM 24 Nov 08:38:50 08:41:07 15° 59° (ENE) 08:43:24 437.425
TIGRISAT 24 Nov 08:39:07 08:43:10 34° 68° (ENE) 08:47:10 435.000
AAUSAT CUBESAT 2 24 Nov 08:55:10 08:59:17 55° 288° (WNW) 09:03:22 437.432
DELFI C3 24 Nov 08:57:33 08:59:38 14° 89° (E) 09:01:42 145.870
SEEDS 24 Nov 08:58:34 09:02:06 26° 294° (WNW) 09:05:38 437.485
ZACube-1 24 Nov 08:59:36 09:03:45 77° 284° (WNW) 09:07:55 437.345
FO-29 24 Nov 08:59:49 09:06:21 45° 265° (W) 09:13:36 435.910
XW-2A 24 Nov 09:04:15 09:07:14 29° 291° (WNW) 09:10:13 145.665 - 145.685
UWE-3 24 Nov 09:16:59 09:20:34 29° 293° (WNW) 09:24:09 435.000/436.395/437.385
AO-85 24 Nov 09:19:09 09:20:19 11° 16° (NNE) 09:21:31 145.980
Max Valier Satellite 24 Nov 09:23:11 09:25:38 17° 92° (E) 09:28:04 145.860
HO-68 24 Nov 09:28:25 09:34:25 30° 305° (NW) 09:40:25 435.675
AO-73 24 Nov 09:49:06 09:52:39 28° 293° (WNW) 09:56:13 145.935
BEESAT 2 24 Nov 09:52:29 09:55:18 18° 32° (NNE) 09:58:06 435.950
QB50P2 24 Nov 10:01:41 10:04:02 15° 59° (ENE) 10:06:22 145.880/145.840
Oscar 11 24 Nov 10:01:44 10:05:34 32° 293° (WNW) 10:09:25 .
PCSat 24 Nov 10:10:11 10:14:20 23° 252° (WSW) 10:18:28 145.827
BEESAT 3 24 Nov 10:10:17 10:14:10 50° 47° (NE) 10:17:58 437.485
PRISM 24 Nov 10:11:44 10:15:51 70° 257° (WSW) 10:20:01 437.425
UNISAT 6 24 Nov 10:12:31 10:16:27 29° 265° (W) 10:20:20 437.425
TIGRISAT 24 Nov 10:15:57 10:19:52 29° 265° (W) 10:23:45 435.000
DELFI C3 24 Nov 10:30:48 10:34:46 60° 287° (WNW) 10:38:41 145.870
AIST 2D 24 Nov 10:33:51 10:37:16 61° 74° (ENE) 10:40:43 435.315
DUCHIFAT 1 24 Nov 10:44:36 10:48:05 26° 65° (ENE) 10:51:35 145.980
EO-88 24 Nov 10:46:42 10:50:22 74° 285° (WNW) 10:54:01 145.990 - 145.960
FALCONSAT 3 24 Nov 10:50:20 10:51:42 12° 180° (S) 10:53:05 435.103
EO-79 24 Nov 10:55:28 10:59:27 41° 69° (ENE) 11:03:26 145.935-145.965
Max Valier Satellite 24 Nov 10:56:10 10:59:38 40° 289° (WNW) 11:03:05 145.860
NANOSAT C BR1 24 Nov 10:56:34 11:00:28 37° 69° (ENE) 11:04:23 145.865
AO-85 24 Nov 10:58:10 11:02:09 29° 39° (NE) 11:06:23 145.980
LO-87 24 Nov 11:01:10 11:03:55 21° 94° (E) 11:06:39 145.935 - 145.965
AO-91 24 Nov 11:04:29 11:04:54 10° 52° (NE) 11:05:18 145.960
POLYITAN 1 24 Nov 11:11:30 11:15:41 59° 72° (ENE) 11:19:50 437.675
BUGSAT 1 24 Nov 11:24:48 11:27:44 19° 62° (ENE) 11:30:39 437.445
BEESAT 2 24 Nov 11:29:32 11:33:36 89° 41° (NE) 11:37:36 435.950
QB50P2 24 Nov 11:35:03 11:39:17 71° 258° (WSW) 11:43:32 145.880/145.840
ESTCUBE 1 24 Nov 11:42:59 11:47:23 47° 99° (E) 11:51:45 437.505/2401.250
Gurwin Techsat 1B 24 Nov 11:45:28 11:48:58 18° 56° (NE) 11:52:27 435.225
BEESAT 3 24 Nov 11:48:28 11:51:23 20° 246° (WSW) 11:54:16 437.485
AIST 2D 24 Nov 12:10:25 12:10:50 10° 272° (W) 12:11:16 435.315
DUCHIFAT 1 24 Nov 12:19:46 12:23:37 35° 263° (W) 12:27:29 145.980
SPROUT 24 Nov 12:20:59 12:24:45 30° 95° (E) 12:28:28 437.525
AO-7 24 Nov 12:27:27 12:32:55 20° 41° (NE) 12:38:24 .
Oscar 19 24 Nov 12:31:19 12:36:15 51° 69° (ENE) 12:41:13 437.125/150
EO-79 24 Nov 12:32:05 12:35:22 22° 267° (W) 12:38:40 145.935-145.965
NANOSAT C BR1 24 Nov 12:32:53 12:36:17 23° 266° (W) 12:39:42 145.865
LO-87 24 Nov 12:34:14 12:37:21 29° 291° (WNW) 12:40:27 145.935 - 145.965
AO-91 24 Nov 12:35:00 12:40:14 52° 70° (ENE) 12:45:23 145.960
AO-85 24 Nov 12:38:16 12:42:50 57° 237° (WSW) 12:47:44 145.980
POLYITAN 1 24 Nov 12:49:20 12:51:49 15° 270° (W) 12:54:19 437.675
BUGSAT 1 24 Nov 12:58:42 13:02:45 50° 260° (W) 13:06:48 437.445
BEESAT 2 24 Nov 13:09:24 13:10:40 11° 251° (WSW) 13:11:55 435.950
O/OREOS (USA 219) 24 Nov 13:17:38 13:22:13 69° 113° (ESE) 13:26:49 437.305
ESTCUBE 1 24 Nov 13:20:21 13:23:54 23° 297° (WNW) 13:27:26 437.505/2401.250
Gurwin Techsat 1B 24 Nov 13:22:56 13:28:16 83° 256° (WSW) 13:33:38 435.225
50 SAT 24 Nov 13:23:02 13:25:17 17° 94° (E) 13:27:32 437.505
VELOX 1 24 Nov 13:25:04 13:29:33 84° 103° (ESE) 13:34:00 145.980
